This is the latest recevied weather packets stored in our database for station/object W0SS-13. If no packets are shown the sender has not sent any weather packets the latest 1 day(s).
| Time | Temp. | Humidity | Pressure | Rain* | Wind** | Luminosity | Snow |
|---|---|---|---|---|---|---|---|
| 1778040297 | 10° C | 76% | 1016.1 hPa | 0 mm | - | 0 W/m² | - |
| 1778039992 | 10.56° C | 74% | 1015.9 hPa | 0 mm | - | 0 W/m² | - |
| 1778039690 | 10° C | 79% | 1015.5 hPa | 0 mm | - | 0 W/m² | - |
| 1778039386 | 10° C | 80% | 1015.3 hPa | 0 mm | - | 0 W/m² | - |
| 1778039084 | 10° C | 80% | 1015.2 hPa | 0 mm | - | 0 W/m² | - |
| 1778038478 | 10.56° C | 78% | 1015.3 hPa | 0 mm | - | 0 W/m² | - |
| 1778037872 | 10.56° C | 76% | 1014.8 hPa | 0 mm | - | 0 W/m² | - |
| 1778037568 | 10.56° C | 75% | 1014.4 hPa | 0 mm | - | 0 W/m² | - |
| 1778036963 | 10.56° C | 77% | 1014.6 hPa | 0 mm | - | 0 W/m² | - |
| 1778036055 | 10° C | 87% | 1014.4 hPa | 0 mm | - | 0 W/m² | - |
| 1778035751 | 10° C | 88% | 1014.1 hPa | 0 mm | - | 0 W/m² | - |
| 1778035448 | 10° C | 88% | 1014.1 hPa | 0 mm | - | 0 W/m² | - |
| 1778035144 | 10° C | 87% | 1013.9 hPa | 0 mm | - | 0 W/m² | - |
| 1778034841 | 10° C | 87% | 1013.7 hPa | 0 mm | - | 0 W/m² | - |
| 1778034538 | 10° C | 87% | 1013.6 hPa | 0 mm | - | 0 W/m² | - |
| 1778033933 | 10° C | 87% | 1013.6 hPa | 0 mm | - | 0 W/m² | - |
| 1778033630 | 10° C | 87% | 1013.7 hPa | 0 mm | - | 0 W/m² | - |
| 1778033327 | 10° C | 87% | 1013.6 hPa | 0 mm | - | 0 W/m² | - |
| 1778033025 | 10° C | 86% | 1013.6 hPa | 0 mm | - | 0 W/m² | - |
| 1778032722 | 10° C | 86% | 1013.6 hPa | 0 mm | - | 0 W/m² | - |
| 1778032420 | 10° C | 86% | 1013.3 hPa | 0 mm | - | 0 W/m² | - |
| 1778032116 | 10° C | 86% | 1013.2 hPa | 0 mm | - | 0 W/m² | - |
| 1778031813 | 10° C | 86% | 1013.1 hPa | 0 mm | - | 0 W/m² | - |
| 1778031207 | 10° C | 86% | 1013 hPa | 0 mm | - | 0 W/m² | - |
| 1778030903 | 10° C | 86% | 1013.1 hPa | 0 mm | - | 0 W/m² | - |
* Rain latest hour (hover to see other rain measurements)
** Current wind speed in m/s (hover to see current wind gust speed)